TimeCST,TemperatureF,Dew PointF,Humidity,Sea Level PressureIn,VisibilityMPH,Wind Direction,Wind SpeedMPH,Gust SpeedMPH,PrecipitationIn,Events,Conditions,WindDirDegrees,DateUTC
12:15 AM,27.3,14.5,59,29.53,10.0,WNW,12.7,-,N/A,,Clear,300,2012-12-15 06:15:00
12:35 AM,30.0,14.7,53,29.53,10.0,WNW,15.0,-,N/A,,Clear,300,2012-12-15 06:35:00
12:55 AM,31.3,14.9,51,29.54,10.0,WNW,12.7,-,N/A,,Clear,300,2012-12-15 06:55:00
1:15 AM,32.5,15.3,49,29.54,10.0,WNW,16.1,-,N/A,,Clear,290,2012-12-15 07:15:00
1:35 AM,32.9,15.4,49,29.54,10.0,NW,13.8,-,N/A,,Clear,310,2012-12-15 07:35:00
1:55 AM,33.8,15.4,47,29.55,10.0,NW,15.0,-,N/A,,Clear,310,2012-12-15 07:55:00
2:15 AM,32.7,15.4,49,29.56,10.0,WNW,11.5,-,N/A,,Clear,300,2012-12-15 08:15:00
2:35 AM,31.5,15.6,52,29.57,10.0,WNW,11.5,-,N/A,,Clear,300,2012-12-15 08:35:00
2:55 AM,32.2,15.4,50,29.58,10.0,NW,10.4,16.1,N/A,,Clear,320,2012-12-15 08:55:00
3:15 AM,32.4,14.7,48,29.58,10.0,NW,12.7,-,N/A,,Clear,310,2012-12-15 09:15:00
3:35 AM,32.4,14.9,49,29.59,10.0,NW,16.1,-,N/A,,Clear,310,2012-12-15 09:35:00
3:55 AM,33.4,16.3,50,29.59,10.0,NW,17.3,-,N/A,,Clear,310,2012-12-15 09:55:00
4:15 AM,36.0,18.0,48,29.59,10.0,NW,13.8,-,N/A,,Clear,320,2012-12-15 10:15:00
4:35 AM,32.9,16.9,52,29.60,10.0,WNW,12.7,-,N/A,,Clear,300,2012-12-15 10:35:00
4:55 AM,34.2,19.6,55,29.60,10.0,WNW,17.3,-,N/A,,Clear,300,2012-12-15 10:55:00
5:15 AM,35.8,21.2,55,29.61,10.0,WNW,15.0,23.0,N/A,,Clear,300,2012-12-15 11:15:00
5:35 AM,35.8,22.1,58,29.62,10.0,WNW,16.1,-,N/A,,Clear,300,2012-12-15 11:35:00
5:55 AM,32.0,21.7,66,29.62,10.0,WNW,12.7,-,N/A,,Clear,300,2012-12-15 11:55:00
6:15 AM,32.9,22.3,65,29.62,10.0,WNW,11.5,-,N/A,,Clear,300,2012-12-15 12:15:00
6:35 AM,33.8,22.8,64,29.64,10.0,NW,12.7,-,N/A,,Clear,310,2012-12-15 12:35:00
6:55 AM,33.4,23.0,66,29.65,10.0,NW,13.8,19.6,N/A,,Clear,310,2012-12-15 12:55:00
7:15 AM,32.0,22.8,69,29.65,10.0,NW,11.5,-,N/A,,Clear,320,2012-12-15 13:15:00
7:35 AM,34.0,23.9,67,29.64,10.0,NW,11.5,-,N/A,,Clear,320,2012-12-15 13:35:00
8:15 AM,32.0,23.4,70,29.65,10.0,NW,6.9,-,N/A,,Clear,310,2012-12-15 14:15:00
8:35 AM,33.4,24.4,70,29.66,10.0,NW,10.4,-,N/A,,Clear,320,2012-12-15 14:35:00
8:55 AM,34.0,24.3,68,29.67,10.0,NW,10.4,-,N/A,,Clear,320,2012-12-15 14:55:00
9:15 AM,36.1,25.2,64,29.68,10.0,NW,11.5,-,N/A,,Clear,320,2012-12-15 15:15:00
9:35 AM,36.1,25.3,65,29.68,10.0,NW,9.2,-,N/A,,Clear,310,2012-12-15 15:35:00
9:55 AM,38.7,26.1,61,29.69,10.0,NW,9.2,-,N/A,,Clear,310,2012-12-15 15:55:00
10:15 AM,38.5,26.2,61,29.69,10.0,NW,9.2,-,N/A,,Clear,310,2012-12-15 16:15:00
10:35 AM,40.3,26.4,58,29.69,10.0,NW,11.5,16.1,N/A,,Clear,320,2012-12-15 16:35:00
10:55 AM,41.0,27.0,57,29.68,10.0,North,15.0,-,N/A,,Clear,350,2012-12-15 16:55:00
11:15 AM,43.0,26.1,51,29.69,10.0,North,13.8,-,N/A,,Clear,350,2012-12-15 17:15:00
11:35 AM,43.3,26.4,51,29.69,10.0,NNW,11.5,-,N/A,,Clear,340,2012-12-15 17:35:00
11:55 AM,41.2,25.3,53,29.68,10.0,NNW,11.5,-,N/A,,Clear,340,2012-12-15 17:55:00
12:15 PM,43.9,25.5,48,29.68,10.0,North,11.5,-,N/A,,Clear,360,2012-12-15 18:15:00
12:35 PM,45.1,26.2,48,29.68,10.0,North,13.8,18.4,N/A,,Scattered Clouds,350,2012-12-15 18:35:00
12:55 PM,43.7,25.7,49,29.68,10.0,North,11.5,-,N/A,,Scattered Clouds,350,2012-12-15 18:55:00
1:15 PM,43.2,25.5,50,29.68,10.0,NNW,11.5,-,N/A,,Scattered Clouds,330,2012-12-15 19:15:00
1:35 PM,43.5,25.5,49,29.68,10.0,NW,11.5,-,N/A,,Mostly Cloudy,320,2012-12-15 19:35:00
1:55 PM,43.2,25.3,49,29.68,10.0,NW,8.1,-,N/A,,Overcast,310,2012-12-15 19:55:00
2:15 PM,43.2,25.5,50,29.67,10.0,NNW,8.1,-,N/A,,Overcast,330,2012-12-15 20:15:00
2:35 PM,44.6,25.7,48,29.67,10.0,NW,5.8,-,N/A,,Mostly Cloudy,310,2012-12-15 20:35:00
2:55 PM,44.6,25.7,48,29.67,10.0,NW,9.2,-,N/A,,Scattered Clouds,310,2012-12-15 20:55:00
3:15 PM,44.1,25.7,49,29.68,10.0,NW,9.2,17.3,N/A,,Scattered Clouds,310,2012-12-15 21:15:00
3:35 PM,43.7,25.7,49,29.68,10.0,NW,10.4,-,N/A,,Mostly Cloudy,310,2012-12-15 21:35:00
3:55 PM,43.2,25.7,50,29.69,10.0,WNW,9.2,-,N/A,,Overcast,300,2012-12-15 21:55:00
4:15 PM,42.8,25.5,51,29.69,10.0,WNW,9.2,-,N/A,,Overcast,290,2012-12-15 22:15:00
4:35 PM,42.1,25.3,52,29.69,10.0,NW,5.8,-,N/A,,Overcast,310,2012-12-15 22:35:00
4:55 PM,41.9,25.3,52,29.69,10.0,NW,4.6,-,N/A,,Overcast,310,2012-12-15 22:55:00
5:15 PM,41.0,26.1,55,29.69,10.0,NW,5.8,-,N/A,,Overcast,320,2012-12-15 23:15:00
5:35 PM,39.6,29.7,68,29.70,10.0,NW,8.1,-,N/A,Rain,Rain,310,2012-12-15 23:35:00
5:55 PM,38.1,31.1,76,29.70,10.0,NNW,3.5,-,N/A,,Drizzle,340,2012-12-15 23:55:00
6:15 PM,36.9,31.3,80,29.70,10.0,North,3.5,-,N/A,Rain,Light Rain,360,2012-12-16 00:15:00
6:35 PM,36.1,32.0,85,29.70,10.0,North,4.6,-,N/A,Rain,Light Rain,360,2012-12-16 00:35:00
6:55 PM,35.6,32.5,89,29.70,5.0,NE,3.5,-,N/A,Rain,Light Rain,40,2012-12-16 00:55:00
7:15 PM,34.2,32.2,92,29.70,5.0,Calm,Calm,-,N/A,Rain,Light Rain,0,2012-12-16 01:15:00
7:35 PM,33.8,32.0,93,29.71,2.0,North,3.5,-,N/A,,Overcast,360,2012-12-16 01:35:00
7:55 PM,33.3,32.0,95,29.71,1.5,Calm,Calm,-,N/A,Snow,Light Snow,0,2012-12-16 01:55:00
8:15 PM,33.1,32.0,96,29.71,1.5,Calm,Calm,-,N/A,Snow,Light Snow,0,2012-12-16 02:15:00
8:35 PM,32.9,32.0,96,29.71,1.2,Calm,Calm,-,N/A,Snow,Light Snow,0,2012-12-16 02:35:00
8:55 PM,32.0,31.1,96,29.71,4.0,NE,4.6,-,0.01,Snow,Light Snow,40,2012-12-16 02:55:00
9:15 PM,30.7,29.8,96,29.70,1.2,ENE,5.8,-,N/A,Snow,Snow,60,2012-12-16 03:15:00
9:35 PM,30.0,28.9,96,29.70,4.0,ENE,4.6,-,N/A,Snow,Light Snow,70,2012-12-16 03:35:00
9:55 PM,30.0,28.4,94,29.69,7.0,East,5.8,-,0.01,,Overcast,80,2012-12-16 03:55:00
10:15 PM,29.5,28.0,94,29.69,7.0,East,5.8,-,0.01,Snow,Light Snow,90,2012-12-16 04:15:00
10:35 PM,29.1,27.3,93,29.70,10.0,ESE,4.6,-,0.02,,Overcast,110,2012-12-16 04:35:00
10:55 PM,29.1,27.7,94,29.70,10.0,East,4.6,-,0.02,,Overcast,100,2012-12-16 04:55:00
11:15 PM,28.8,27.5,95,29.70,5.0,SE,3.5,-,0.01,Snow,Light Snow,130,2012-12-16 05:15:00
11:35 PM,28.4,27.3,96,29.70,5.0,Calm,Calm,-,0.01,Snow,Light Snow,0,2012-12-16 05:35:00
11:55 PM,28.6,27.5,96,29.69,5.0,SE,5.8,-,0.01,Snow,Light Snow,140,2012-12-16 05:55:00